Terminal Aerodrome Forecast
Issued by NWS Mt. Holly, NJ

Home | Current Version | Previous Version | Text Only | Print | Product List | Glossary On
Versions: 1 2 3 4 5 6 7 8 9 10 11 12 13 14 15 16 17 18 19 20 21 22 23
477
FTUS41 KPHI 072320
TAFABE
TAF
KABE 072320Z 0800/0824 27002KT P6SM FEW030
     FM080700 28003KT P6SM BKN120
     FM081600 26012G22KT P6SM SCT040
     FM082200 27008KT P6SM SCT040=

USA.gov is the U.S. government's official web portal to all federal, state and local government web resources and services.